Location: Veytaux
(46.4185°N, 6.9320°E)
Time: 01:21:20
(UTC+00:00)

Daily predictions for brighter satellites

Satellite Brightness Start Highest point End
(mag) Time Altitude Azimuth Time Altitude Azimuth Time Altitude Azimuth
SL-16 R/B 3.9 00:02:19 17° ESE 00:04:06 20° E 00:08:03 10° NE
Lacrosse 5 3.2 00:07:00 25° SE 00:07:00 25° SE 00:11:04 10° ENE
USA 306 2.8 00:07:12 66° SE 00:07:12 66° SE 00:11:12 10° ENE
SL-16 R/B 4.3 00:02:24 10° ESE 00:07:30 28° ENE 00:12:38 10° N
Cosmos 1980 3.8 00:06:08 46° S 00:07:40 64° ESE 00:13:16 10° NNE
Cosmos 371 Rocket 3.2 00:06:52 56° S 00:07:49 75° ESE 00:12:40 10° NNE
Cosmos 1461 4.0 00:07:11 10° NW 00:10:09 31° W 00:10:09 31° W
Cosmos 2333 Rocket 3.6 00:07:16 16° WSW 00:11:01 32° NW 00:16:06 10° NNE
USA 307 2.9 00:11:14 61° SE 00:11:14 61° SE 00:15:13 10° ENE
Meteor 2-10 Rocket 4.1 00:08:43 10° N 00:14:20 58° ENE 00:16:52 31° SE
ATLAS CENTAUR R/B 3.6 00:11:41 10° WNW 00:13:49 16° W 00:13:49 16° W
Cosmos 304 Rocket 4.0 00:15:45 47° SSE 00:16:43 57° ESE 00:21:27 10° NNE
ASTEX 1 3.9 00:12:04 10° N 00:16:47 48° WNW 00:18:02 39° WSW
Cosmos 1709 Rocket 4.0 00:10:40 10° N 00:16:49 75° E 00:19:32 35° SSE
Cosmos 2084 Rocket 4.4 00:19:40 29° ESE 00:19:40 29° ESE 00:22:34 10° ENE
USA 267 3.3 00:17:02 34° SSE 00:19:41 54° SW 00:26:05 10° WNW
Cosmos 2315 Rocket 4.2 00:18:32 36° SSE 00:21:14 68° E 00:27:35 10° NNE
NOSS 2-2 (C) 4.3 00:18:19 10° NW 00:23:28 67° SW 00:26:47 31° SSE
Cosmos 1674 Rocket 4.1 00:23:08 41° WSW 00:23:51 46° WNW 00:28:01 10° N
USA 229 DEB 3.9 00:19:10 10° NW 00:26:29 64° WSW 00:30:40 29° SSE
USA 229 3.9 00:19:16 10° NW 00:26:35 64° WSW 00:30:48 29° SSE
S3M 4.1 00:24:09 38° SSW 00:26:43 68° W 00:33:04 10° N
Cosmos 2219 Rocket 3.6 00:26:28 16° WSW 00:30:06 30° NW 00:34:59 10° N
Cosmos 1455 4.4 00:28:52 10° NNE 00:31:37 19° ENE 00:33:50 12° ESE
Cosmos 2150 Rocket 4.1 00:32:32 40° SW 00:34:16 64° WNW 00:39:25 10° NNE
MOZ.5/SAFIR/RUBIN 5/SL-8 3.9 00:34:54 38° SSE 00:36:41 76° ENE 00:41:27 10° N
CZ-2D R/B 3.2 00:33:29 10° NNE 00:38:26 36° E 00:40:53 24° SE
Cosmos 1455 Rocket 3.2 00:36:30 10° N 00:40:58 70° E 00:42:27 40° SSE
USA 308 2.8 00:40:45 51° WSW 00:41:45 84° NNW 00:45:57 10° ENE
Cosmos 1300 2.7 00:40:02 10° NNW 00:43:46 58° W 00:43:56 57° WSW
Cosmos 1125 Rocket 4.0 00:43:32 33° WSW 00:45:33 50° WNW 00:50:37 10° NNE
NOSS 0 Rocket 4.3 00:45:00 28° SW 00:48:12 58° WNW 00:54:23 10° NNE
Meteor 2-5 Rocket 3.9 00:50:14 32° S 00:52:54 68° E 00:58:31 10° NNE
SL-14 R/B 4.2 00:53:24 32° W 00:53:57 34° WNW 00:57:30 10° N
ERBS 2.3 00:55:13 59° NW 00:55:16 59° NW 00:58:18 10° NE
CZ-4C R/B 3.8 00:50:34 10° NW 00:57:04 32° WSW 00:59:24 27° SW
Cosmos 1975 Rocket 3.0 00:56:40 47° SSW 00:57:56 84° W 01:02:26 10° N
Cosmos 2237 Rocket 2.5 00:56:44 30° SW 00:59:24 58° WNW 01:05:03 10° NNE
Cosmos 1025 Rocket 2.9 01:00:08 45° S 01:01:26 85° E 01:05:44 10° N
COSMOS 2428 4.4 00:59:51 12° W 01:04:00 25° NW 01:08:39 10° N
Resurs 1-4 Rocket 2.3 00:59:11 10° NNE 01:04:25 62° ESE 01:07:01 30° S
USA 305 3.4 01:02:25 25° W 01:04:37 55° NNW 01:08:44 10° NE
SME Rocket 3.1 01:03:28 42° S 01:04:47 72° WSW 01:09:56 10° NNW
Cosmos 332 Rocket 4.1 01:08:19 34° SW 01:10:09 57° WNW 01:14:53 10° NNE
CZ-4 R/B 3.9 01:06:32 10° NNE 01:11:11 69° ESE 01:13:13 33° S
Cosmos 1943 Rocket 2.1 01:08:46 10° NNW 01:14:30 90° WSW 01:19:23 14° SSE
Lacrosse 5 rocket 1.6 01:14:37 40° SSE 01:15:20 46° SE 01:19:13 10° ENE
IDEFIX/ARIANE 42P 3.7 01:12:28 10° NNE 01:17:20 36° E 01:21:05 16° SSE
GP-B 3.9 01:14:05 10° NNW 01:18:11 38° W 01:19:29 31° WSW
ADEOS II 2.9 01:13:13 10° NNE 01:18:15 44° E 01:21:40 19° SSE
UNK 4.0 01:15:35 19° SSE 01:18:51 66° ENE 01:23:27 10° N
Cosmos 614 Rocket 4.5 01:14:23 10° NNW 01:19:33 60° ENE 01:24:42 10° SE
Cosmos 1953 4.3 01:17:54 10° NW 01:20:12 15° W 01:20:22 15° W
Cosmos 2297 3.8 01:14:30 10° NNW 01:20:18 80° ENE 01:26:02 10° SSE
Thor Agena Rocket 4.0 01:16:35 10° N 01:21:44 54° WNW 01:24:18 28° SW
Cosmos 1544 Rocket 3.5 01:23:03 10° NNW 01:27:29 74° W 01:29:32 31° S
Helios 1A 3.9 01:25:18 10° SE 01:29:20 47° ENE 01:33:25 10° N
Cosmos 2278 Rocket 3.5 01:25:44 10° NW 01:29:48 21° W 01:30:39 20° WSW
Cosmos 2154 Rocket 4.2 01:25:23 10° N 01:31:46 75° E 01:37:42 12° SSE
EO 1 Del DPAF 4.1 01:31:11 10° NNE 01:34:29 37° E 01:36:19 21° SSE
MOS 1 Rocket 3.0 01:33:16 20° SSE 01:36:11 84° ENE 01:40:31 10° N
NPP 3.6 01:32:52 10° NNE 01:38:18 84° WNW 01:41:35 25° SSW
Cosmos 2369 Rocket 2.6 01:38:01 10° NNW 01:43:36 63° ENE 01:49:08 10° SE
USA 306 4.1 01:42:56 10° W 01:46:50 38° NNW 01:50:46 10° NE
Cosmos 1656 Rocket 4.4 01:41:39 10° NNW 01:46:58 53° ENE 01:52:16 10° SE
SL-16 R/B 2.3 01:44:11 24° SW 01:47:37 69° WNW 01:53:19 10° NNE
Meteor 1-28 Rocket 3.1 01:46:34 19° SSE 01:49:13 85° ENE 01:52:57 10° NNW
Lacrosse 5 2.0 01:46:10 22° WSW 01:49:32 73° NW 01:54:39 10° NE
SL-16 R/B 2.6 01:45:54 17° S 01:50:40 60° WSW 01:56:52 10° NNW
USA 307 4.1 01:46:58 10° W 01:50:52 39° NNW 01:54:50 10° NE
Cosmos 2074 Rocket 4.2 01:48:29 10° NNW 01:54:36 55° W 01:59:10 18° SSW
Cosmos 2084 Rocket 4.5 01:56:07 16° W 01:58:34 32° NW 02:02:02 10° NNE
AQUA 3.9 01:57:05 10° N 02:01:49 64° WNW 02:04:57 21° SSW
Cosmos 1455 3.1 02:03:52 10° NNW 02:07:10 30° W 02:08:35 23° SW
Cosmos 2184 Rocket 4.5 02:04:45 10° NNW 02:10:35 43° W 02:15:07 16° SSW
Cosmos 1603 4.4 02:06:20 12° S 02:11:19 48° ESE 02:16:45 10° NE
COSMOS 2455 2.9 02:08:44 19° SW 02:13:16 80° NW 02:19:21 10° NNE
Cosmos 407 Rocket 4.0 02:09:12 10° NNW 02:14:30 63° ENE 02:19:43 10° SSE
Cosmos 2228 3.0 02:10:17 10° NNW 02:14:39 74° W 02:18:53 10° S
Cosmos 1271 Rocket 3.0 02:11:39 10° NNW 02:15:20 46° W 02:18:01 17° SSW
CZ-2D R/B 3.1 02:13:36 10° N 02:18:24 35° WNW 02:22:12 15° WSW
USA 308 4.5 02:18:00 10° WNW 02:21:47 32° NNW 02:25:36 10° NE
Cosmos 1140 Rocket 3.7 02:17:27 10° NNW 02:22:45 77° ENE 02:27:58 10° SSE
MSX 3.8 02:19:55 10° NNE 02:25:43 81° WNW 02:31:11 12° SSW
Cosmos 962 Rocket 4.4 02:21:43 10° NNW 02:27:51 77° W 02:33:57 10° S
Cosmos 1536 Rocket 4.5 02:25:14 16° SW 02:28:08 34° WNW 02:32:10 10° N
Cosmos 292 Rocket 4.2 02:25:27 16° SW 02:29:06 50° WNW 02:33:48 10° NNE
Cosmos 2058 Rocket 4.1 02:25:17 10° N 02:29:33 48° ENE 02:33:46 10° SSE
Cosmos 2181 Rocket 4.3 02:27:29 10° S 02:33:40 69° E 02:39:47 10° NNE
NOSS 3-3 (A) 4.0 02:30:11 14° SSW 02:35:10 78° SE 02:41:40 10° NE
NOSS 3-3 (C) 4.0 02:30:17 14° SSW 02:35:16 77° SE 02:41:46 10° NE
Cosmos 1023 Rocket 4.5 02:35:19 10° NNW 02:40:37 75° WSW 02:45:50 10° SSE
Genesis I 3.2 02:36:42 10° NW 02:40:47 87° SW 02:44:46 10° SE
Cosmos 1943 3.3 02:36:10 11° SSW 02:41:37 89° ESE 02:47:21 10° NNE
Resurs 1-4 Rocket 3.7 02:39:53 10° NNW 02:43:47 21° WNW 02:47:41 10° WSW
Meteor 2-1 Rocket 4.3 02:38:46 10° NNW 02:44:29 65° W 02:50:02 10° S
Cosmos 2237 Rocket 4.4 02:41:53 10° WNW 02:44:46 14° NW 02:47:40 10° N
DEBRIS 3.7 02:34:43 10° WNW 02:45:20 84° NNE 02:48:34 10° ESE
Helios 1B rocket 2.6 02:43:16 10° NNE 02:47:20 72° ESE 02:51:23 10° S
Cosmos 1328 3.9 02:44:38 10° SSW 02:48:33 64° W 02:52:32 10° N
Cosmos 1606 Rocket 3.9 02:46:17 10° NNW 02:50:31 46° W 02:54:42 10° SSW
ARIANE 5 R/B 3.7 02:47:41 10° NNE 02:52:30 42° E 02:57:13 10° S
Cosmos 1624 Rocket 4.4 02:47:26 10° S 02:52:40 64° ESE 02:57:55 10° NNE
Lacrosse 5 rocket 2.5 02:50:51 10° W 02:54:29 35° NNW 02:58:21 10° NE
CBERS-1 4.0 02:50:47 10° NNE 02:55:55 82° WNW 03:01:01 10° SSW
IDEFIX/ARIANE 42P 3.5 02:52:09 10° N 02:56:51 34° WNW 03:01:33 10° SW
Cosmos 1943 Rocket 3.9 02:54:29 10° WNW 02:57:23 14° W 03:00:16 10° SW
ADEOS II 3.3 02:53:17 10° N 02:57:43 29° WNW 03:02:09 10° WSW
SL-19 R/B 4.5 02:51:47 10° NNE 02:57:55 78° WNW 03:03:43 10° SSW
FENGYUN 3A 3.9 02:53:53 10° NNE 02:59:17 72° ESE 03:04:39 10° S
Gblst 52 Del rocket 4.3 02:53:39 10° WNW 02:59:20 82° NNE 03:04:50 10° ESE
Cosmos 2056 Rocket 3.7 02:59:20 10° SSW 03:04:30 79° ESE 03:09:48 10° NNE
Cosmos 1825 3.6 03:01:12 10° SSE 03:04:40 38° E 03:08:09 10° NNE
IRS-1D 4.2 03:04:00 10° N 03:09:01 43° WNW 03:13:59 10° SW
BREEZE-M DEB (TANK) 3.6 03:04:29 10° W 03:11:30 59° N 03:14:13 10° E
Cosmos 2366 rocket 4.1 03:05:34 10° NNW 03:11:38 61° W 03:17:42 10° S
